GW5221 Weather Reports


Display with metric or nautical units.
time (UTC)temp
F
wind
direction
speed
MPH
gust
MPH
rain 1hr
in
rain 24hr
in
rain mn
in
humidity
%
barometer
mb
20260903220429 88 184 2.0 4.0 0.00 0.00 0.00 69
20260903215927 88 351 1.0 4.0 0.00 0.00 0.00 69
20260903215424 89 17 1.0 7.0 0.00 0.00 0.00 68
20260903214922 89 228 2.0 7.0 0.00 0.00 0.00 66
20260903214418 89 127 1.0 7.0 0.00 0.00 0.00 67
20260903213917 88 359 2.0 8.0 0.00 0.00 0.00 67
20260903213413 89 342 1.0 4.0 0.00 0.00 0.00 67
20260903212909 89 17 4.0 6.0 0.00 0.00 0.00 66
20260903212405 90 45 2.0 4.0 0.00 0.00 0.00 64
20260903211904 90 82 1.0 4.0 0.00 0.00 0.00 64
20260903211400 90 352 3.0 9.0 0.00 0.00 0.00 64
20260903210856 90 313 2.0 4.0 0.00 0.00 0.00 65
20260903210350 90 320 1.0 6.0 0.00 0.00 0.00 65
20260903205850 90 89 2.0 6.0 0.00 0.00 0.00 64
20260903205350 90 293 5.0 8.0 0.00 0.00 0.00 63
20260903204845 90 39 2.0 6.0 0.00 0.00 0.00 64
20260903204341 90 31 2.0 4.0 0.00 0.00 0.00 65
20260903203836 90 322 2.0 7.0 0.00 0.00 0.00 67
20260903203332 90 48 4.0 6.0 0.00 0.00 0.00 66
20260903202831 90 113 2.0 3.0 0.00 0.00 0.00 67
20260903202328 90 38 2.0 4.0 0.00 0.00 0.00 69
20260903201826 91 351 5.0 7.0 0.00 0.00 0.00 67
20260903201322 91 39 2.0 6.0 0.00 0.00 0.00 67
20260903200820 91 52 3.0 6.0 0.00 0.00 0.00 66
20260903200316 92 272 3.0 6.0 0.00 0.00 0.00 64
20260903195811 92 112 3.0 6.0 0.00 0.00 0.00 64
20260903195307 91 329 2.0 4.0 0.00 0.00 0.00 66
20260903194802 90 205 1.0 7.0 0.00 0.00 0.00 66
20260903194258 91 9 2.0 7.0 0.00 0.00 0.00 66
20260903193754 90 304 2.0 7.0 0.00 0.00 0.00 68
20260903193249 91 28 4.0 6.0 0.00 0.00 0.00 65
20260903192745 91 30 3.0 4.0 0.00 0.00 0.00 64
20260903192240 91 48 3.0 4.0 0.00 0.00 0.00 65
20260903191737 91 352 1.0 7.0 0.00 0.00 0.00 66
20260903191232 91 140 2.0 6.0 0.00 0.00 0.00 66
20260903190726 91 25 1.0 9.0 0.00 0.00 0.00 66
20260903190220 91 247 1.0 4.0 0.00 0.00 0.00 65
20260903185715 91 185 2.0 7.0 0.00 0.00 0.00 65
20260903185210 91 230 6.0 8.0 0.00 0.00 0.00 65
20260903184707 92 22 3.0 7.0 0.00 0.00 0.00 65
20260903184203 90 1 1.0 7.0 0.00 0.00 0.00 68
20260903183702 91 49 1.0 4.0 0.00 0.00 0.00 66
20260903183156 91 125 5.0 8.0 0.00 0.00 0.00 66
20260903182656 91 220 1.0 6.0 0.00 0.00 0.00 66
20260903182152 92 325 4.0 8.0 0.00 0.00 0.00 64
20260903181650 92 25 1.0 7.0 0.00 0.00 0.00 64
20260903181144 92 240 2.0 4.0 0.00 0.00 0.00 65
20260903180640 91 104 2.0 9.0 0.00 0.00 0.00 66
20260903180139 91 200 3.0 6.0 0.00 0.00 0.00 65
20260903175633 91 49 3.0 8.0 0.00 0.00 0.00 65
20260903175132 90 109 5.0 7.0 0.00 0.00 0.00 66
20260903174628 90 252 2.0 6.0 0.00 0.00 0.00 68
20260903174128 90 234 2.0 6.0 0.00 0.00 0.00 68
20260903173623 89 48 2.0 3.0 0.00 0.00 0.00 71
20260903173120 89 5 2.0 3.0 0.00 0.00 0.00 71
20260903172619 90 185 5.0 10.0 0.00 0.00 0.00 69
20260903172114 91 127 4.0 6.0 0.00 0.00 0.00 65
20260903171614 91 79 4.0 7.0 0.00 0.00 0.00 64
20260903171110 92 231 3.0 6.0 0.00 0.00 0.00 63
20260903170609 92 41 3.0 11.0 0.00 0.00 0.00 63
20260903170104 93 10 2.0 7.0 0.00 0.00 0.00 61
20260903165601 92 255 1.0 3.0 0.00 0.00 0.00 62
20260903165057 91 200 1.0 6.0 0.00 0.00 0.00 63
20260903164552 92 320 3.0 10.0 0.00 0.00 0.00 63
20260903164049 92 186 2.0 7.0 0.00 0.00 0.00 63
20260903163548 92 97 2.0 4.0 0.00 0.00 0.00 62
20260903163044 93 331 1.0 6.0 0.00 0.00 0.00 61
20260903162540 93 228 3.0 7.0 0.00 0.00 0.00 60
20260903162036 92 357 1.0 3.0 0.00 0.00 0.00 62
20260903161532 92 338 1.0 4.0 0.00 0.00 0.00 62
20260903161027 92 216 4.0 7.0 0.00 0.00 0.00 62
20260903160526 92 3 3.0 7.0 0.00 0.00 0.00 63
20260903160021 92 7 2.0 4.0 0.00 0.00 0.00 62
20260903155520 93 227 1.0 2.0 0.00 0.00 0.00 61
20260903155016 93 77 2.0 7.0 0.00 0.00 0.00 61
20260903154512 93 345 3.0 6.0 0.00 0.00 0.00 62
20260903154008 92 328 2.0 6.0 0.00 0.00 0.00 62
20260903153503 91 342 2.0 6.0 0.00 0.00 0.00 63
20260903152959 90 14 2.0 8.0 0.00 0.00 0.00 65
20260903152454 90 352 2.0 8.0 0.00 0.00 0.00 65
20260903151950 90 40 1.0 6.0 0.00 0.00 0.00 65
20260903151444 89 356 3.0 6.0 0.00 0.00 0.00 66
20260903150939 90 102 2.0 6.0 0.00 0.00 0.00 65
20260903150434 90 95 4.0 9.0 0.00 0.00 0.00 64
20260903145934 91 51 2.0 3.0 0.00 0.00 0.00 63
20260903145430 91 31 2.0 6.0 0.00 0.00 0.00 63
20260903144930 91 348 2.0 6.0 0.00 0.00 0.00 63
20260903144424 92 226 2.0 7.0 0.00 0.00 0.00 62
20260903143920 93 75 3.0 6.0 0.00 0.00 0.00 60
20260903143416 92 14 2.0 4.0 0.00 0.00 0.00 61
20260903142911 91 60 2.0 4.0 0.00 0.00 0.00 62
20260903142407 91 26 2.0 3.0 0.00 0.00 0.00 63
20260903141902 91 22 2.0 7.0 0.00 0.00 0.00 63
20260903141358 91 286 0.0 6.0 0.00 0.00 0.00 64
20260903140853 91 45 2.0 4.0 0.00 0.00 0.00 63
20260903140348 91 43 2.0 6.0 0.00 0.00 0.00 64
20260903135844 90 332 1.0 9.0 0.00 0.00 0.00 64
20260903135339 90 327 2.0 6.0 0.00 0.00 0.00 65
20260903134838 90 92 2.0 4.0 0.00 0.00 0.00 65
20260903134333 89 32 2.0 6.0 0.00 0.00 0.00 66
20260903133831 88 352 2.0 4.0 0.00 0.00 0.00 68
20260903133322 89 56 1.0 3.0 0.00 0.00 0.00 67
20260903132821 89 67 3.0 6.0 0.00 0.00 0.00 67
20260903132317 88 26 2.0 2.0 0.00 0.00 0.00 68
20260903131812 88 345 3.0 4.0 0.00 0.00 0.00 68
20260903131312 88 53 4.0 8.0 0.00 0.00 0.00 69
20260903130806 89 322 1.0 7.0 0.00 0.00 0.00 68
20260903130301 88 110 1.0 6.0 0.00 0.00 0.00 70
20260903125800 88 77 1.0 6.0 0.00 0.00 0.00 70
20260903125255 88 87 2.0 3.0 0.00 0.00 0.00 69
20260903124754 87 18 3.0 4.0 0.00 0.00 0.00 71
20260903124250 87 12 4.0 6.0 0.00 0.00 0.00 72
20260903123748 86 328 1.0 6.0 0.00 0.00 0.00 72
20260903123248 87 13 2.0 4.0 0.00 0.00 0.00 71
20260903122747 87 99 2.0 8.0 0.00 0.00 0.00 71
20260903122246 87 20 1.0 6.0 0.00 0.00 0.00 72
20260903121744 87 310 2.0 6.0 0.00 0.00 0.00 71
20260903121241 87 359 2.0 3.0 0.00 0.00 0.00 71
20260903120736 87 346 4.0 4.0 0.00 0.00 0.00 71
20260903120230 86 331 1.0 8.0 0.00 0.00 0.00 73
20260903115729 86 31 2.0 7.0 0.00 0.00 0.00 72
20260903115224 86 62 2.0 7.0 0.00 0.00 0.00 74
20260903114719 85 30 1.0 4.0 0.00 0.00 0.00 74
20260903114215 85 31 1.0 4.0 0.00 0.00 0.00 74
20260903113715 85 12 0.0 6.0 0.00 0.00 0.00 75
20260903113211 85 76 3.0 4.0 0.00 0.00 0.00 76
20260903112707 84 348 0.0 2.0 0.00 0.00 0.00 77
20260903112202 84 41 3.0 3.0 0.00 0.00 0.00 77
20260903111700 84 68 1.0 3.0 0.00 0.00 0.00 77
20260903111156 84 339 0.0 2.0 0.00 0.00 0.00 78
20260903110652 83 33 1.0 3.0 0.00 0.00 0.00 79
20260903110148 83 342 1.0 2.0 0.00 0.00 0.00 80
20260903105642 82 287 1.0 4.0 0.00 0.00 0.00 80
20260903105137 82 348 0.0 1.0 0.00 0.00 0.00 80
20260903104637 82 345 0.0 4.0 0.00 0.00 0.00 80
20260903104132 82 70 3.0 4.0 0.00 0.00 0.00 81
20260903103628 82 259 1.0 2.0 0.00 0.00 0.00 81
20260903103124 82 343 1.0 3.0 0.00 0.00 0.00 81
20260903102619 82 2 2.0 4.0 0.00 0.00 0.00 81
20260903102118 82 30 1.0 3.0 0.00 0.00 0.00 81
20260903101618 82 6 1.0 4.0 0.00 0.00 0.00 81
20260903101114 82 13 1.0 2.0 0.00 0.00 0.00 81
20260903100609 82 331 1.0 4.0 0.00 0.00 0.00 80
20260903100108 82 347 0.0 3.0 0.00 0.00 0.00 80
20260903095606 82 341 1.0 3.0 0.00 0.00 0.00 80
20260903095105 82 320 2.0 2.0 0.00 0.00 0.00 80
20260903094600 82 26 1.0 3.0 0.00 0.00 0.00 80
20260903094055 83 326 1.0 6.0 0.00 0.00 0.00 79
20260903093556 83 8 2.0 3.0 0.00 0.00 0.00 79
20260903093051 83 348 1.0 3.0 0.00 0.00 0.00 79
20260903092550 83 345 1.0 8.0 0.00 0.00 0.00 79
20260903092045 83 347 0.0 1.0 0.00 0.00 0.00 79
20260903091543 83 148 1.0 3.0 0.00 0.00 0.00 79
20260903091038 83 353 2.0 3.0 0.00 0.00 0.00 79
20260903090535 83 70 1.0 3.0 0.00 0.00 0.00 79
20260903090033 83 348 0.0 3.0 0.00 0.00 0.00 79
20260903085531 83 324 0.0 1.0 0.00 0.00 0.00 79
20260903085027 83 334 1.0 2.0 0.00 0.00 0.00 79
20260903084525 83 320 1.0 4.0 0.00 0.00 0.00 79
20260903084020 83 6 2.0 3.0 0.00 0.00 0.00 79
20260903083516 83 346 1.0 2.0 0.00 0.00 0.00 79
20260903083016 83 353 0.0 6.0 0.00 0.00 0.00 79
20260903082510 83 350 3.0 4.0 0.00 0.00 0.00 79
20260903082006 83 27 1.0 1.0 0.00 0.00 0.00 79
20260903081501 83 8 1.0 2.0 0.00 0.00 0.00 78
20260903080957 83 33 2.0 2.0 0.00 0.00 0.00 78
20260903080453 83 352 1.0 3.0 0.00 0.00 0.00 78
20260903075948 83 343 1.0 4.0 0.00 0.00 0.00 79
20260903075444 83 302 3.0 4.0 0.00 0.00 0.00 79
20260903074939 83 346 2.0 3.0 0.00 0.00 0.00 79
20260903074432 83 340 0.0 3.0 0.00 0.00 0.00 79
20260903073928 83 348 2.0 2.0 0.00 0.00 0.00 79
20260903073423 83 342 0.0 4.0 0.00 0.00 0.00 79
20260903072919 83 348 0.0 4.0 0.00 0.00 0.00 80
20260903072415 83 13 4.0 4.0 0.00 0.00 0.00 80
20260903071911 83 344 1.0 2.0 0.00 0.00 0.00 81
20260903071407 83 72 3.0 4.0 0.00 0.00 0.00 81
20260903070903 83 40 2.0 3.0 0.00 0.00 0.00 81
20260903070357 83 336 0.0 1.0 0.00 0.00 0.00 81
20260903065852 83 340 1.0 3.0 0.00 0.00 0.00 81
20260903065351 83 347 2.0 3.0 0.00 0.00 0.00 81
20260903064850 83 157 0.0 2.0 0.00 0.00 0.00 81
20260903064346 83 348 0.0 4.0 0.00 0.00 0.00 81
20260903063842 83 328 1.0 3.0 0.00 0.00 0.00 82
20260903063337 83 54 1.0 2.0 0.00 0.00 0.00 82
20260903062832 83 358 1.0 3.0 0.00 0.00 0.00 82
20260903062332 83 315 2.0 2.0 0.00 0.00 0.00 81
20260903061828 83 25 2.0 7.0 0.00 0.00 0.00 81
20260903061322 83 333 0.0 2.0 0.00 0.00 0.00 82
20260903060818 83 343 0.0 4.0 0.00 0.00 0.00 81
20260903060316 83 339 0.0 6.0 0.00 0.00 0.00 81
20260903055814 83 128 3.0 6.0 0.00 0.00 0.00 81
20260903055313 83 323 0.0 2.0 0.00 0.00 0.00 81
20260903054808 83 290 1.0 3.0 0.00 0.00 0.00 81
20260903054303 83 352 0.0 2.0 0.00 0.00 0.00 81
20260903053800 83 340 1.0 4.0 0.00 0.00 0.00 81
20260903053300 83 352 0.0 6.0 0.00 0.00 0.00 81
20260903052755 83 355 1.0 3.0 0.00 0.00 0.00 82
20260903052251 83 345 1.0 2.0 0.00 0.00 0.00 82
20260903051746 83 38 1.0 2.0 0.00 0.00 0.00 82
20260903051241 83 21 1.0 2.0 0.00 0.00 0.00 82
20260903050737 83 328 1.0 4.0 0.00 0.00 0.00 82
20260903050236 83 326 1.0 6.0 0.00 0.00 0.00 82
20260903045731 83 45 1.0 4.0 0.00 0.00 0.00 82
20260903045227 83 359 1.0 3.0 0.00 0.00 0.00 82
20260903044723 83 18 1.0 3.0 0.00 0.00 0.00 82
20260903044218 83 340 2.0 3.0 0.00 0.00 0.00 81
20260903043715 83 5 1.0 2.0 0.00 0.00 0.00 81
20260903043214 83 344 1.0 2.0 0.00 0.00 0.00 81
20260903042714 83 312 2.0 3.0 0.00 0.00 0.00 81
20260903042208 83 52 2.0 2.0 0.00 0.00 0.00 81
20260903041705 83 46 0.0 2.0 0.00 0.00 0.00 80
20260903041201 83 336 2.0 4.0 0.00 0.00 0.00 80
20260903040700 83 356 0.0 2.0 0.00 0.00 0.00 80
20260903040155 83 53 1.0 2.0 0.00 0.00 0.00 80
20260903035652 83 169 2.0 3.0 0.00 0.00 0.00 80
20260903035148 83 230 1.0 3.0 0.00 0.00 0.00 80
20260903034647 83 303 0.0 3.0 0.00 0.00 0.00 80
20260903034142 83 340 1.0 4.0 0.00 0.00 0.00 80
20260903033638 83 40 2.0 6.0 0.00 0.00 0.00 80
20260903033137 83 60 4.0 7.0 0.00 0.00 0.00 81
20260903032633 83 27 2.0 3.0 0.00 0.00 0.00 81
20260903032128 84 332 1.0 2.0 0.00 0.00 0.00 81
20260903031618 84 348 0.0 2.0 0.00 0.00 0.00 81
20260903031113 84 357 0.0 1.0 0.00 0.00 0.00 81
20260903030609 84 317 1.0 6.0 0.00 0.00 0.00 81
20260903030104 84 353 1.0 8.0 0.00 0.00 0.00 81
20260903025605 84 338 1.0 8.0 0.00 0.00 0.00 81
20260903025100 84 350 2.0 4.0 0.00 0.00 0.00 81
20260903024555 84 355 1.0 2.0 0.00 0.00 0.00 81
20260903024055 84 333 3.0 4.0 0.00 0.00 0.00 81
20260903023550 84 350 1.0 7.0 0.00 0.00 0.00 81
20260903023046 84 358 0.0 2.0 0.00 0.00 0.00 81
20260903022545 84 354 2.0 4.0 0.00 0.00 0.00 81
20260903022044 84 358 1.0 4.0 0.00 0.00 0.00 81
20260903021539 84 36 4.0 7.0 0.00 0.00 0.00 81
20260903021033 84 54 2.0 2.0 0.00 0.00 0.00 81
20260903020529 84 319 1.0 3.0 0.00 0.00 0.00 80
20260903020023 84 34 0.0 4.0 0.00 0.00 0.00 80
20260903015519 84 47 3.0 3.0 0.00 0.00 0.00 80
20260903015014 84 232 2.0 4.0 0.00 0.00 0.00 80
20260903014514 84 339 0.0 7.0 0.00 0.00 0.00 80
20260903014009 84 16 0.0 6.0 0.00 0.00 0.00 79
20260903013508 84 12 1.0 3.0 0.00 0.00 0.00 79
20260903013008 84 314 1.0 3.0 0.00 0.00 0.00 79
20260903012507 84 12 2.0 4.0 0.00 0.00 0.00 78
20260903012006 84 22 2.0 4.0 0.00 0.00 0.00 78
20260903011501 84 318 1.0 2.0 0.00 0.00 0.00 78
20260903010957 84 23 4.0 7.0 0.00 0.00 0.00 77
20260903010457 84 337 3.0 4.0 0.00 0.00 0.00 77
20260903005954 84 313 2.0 6.0 0.00 0.00 0.00 77
20260903005450 84 357 0.0 3.0 0.00 0.00 0.00 77
20260903004947 84 16 1.0 7.0 0.00 0.00 0.00 76
20260903004446 84 357 2.0 2.0 0.00 0.00 0.00 76
20260903003942 84 25 1.0 2.0 0.00 0.00 0.00 76
20260903003436 84 340 1.0 7.0 0.00 0.00 0.00 76
20260903002931 85 143 4.0 4.0 0.00 0.00 0.00 76
20260903002426 85 10 2.0 4.0 0.00 0.00 0.00 76
20260903001926 85 13 1.0 2.0 0.00 0.00 0.00 75
20260903001426 85 307 1.0 2.0 0.00 0.00 0.00 75
20260903000926 85 319 0.0 3.0 0.00 0.00 0.00 75
20260903000421 85 3 1.0 3.0 0.00 0.00 0.00 76
20260902235919 85 323 0.0 3.0 0.00 0.00 0.00 76
20260902235415 85 23 2.0 4.0 0.00 0.00 0.00 75
20260902234914 85 349 2.0 8.0 0.00 0.00 0.00 75
20260902234409 85 330 3.0 6.0 0.00 0.00 0.00 75
20260902233909 85 38 2.0 3.0 0.00 0.00 0.00 75
20260902233403 85 2 2.0 8.0 0.00 0.00 0.00 75
20260902232901 85 83 4.0 6.0 0.00 0.00 0.00 75
20260902232357 85 358 0.0 3.0 0.00 0.00 0.00 75
20260902231856 85 332 1.0 3.0 0.00 0.00 0.00 75
20260902231351 85 15 1.0 6.0 0.00 0.00 0.00 75
20260902230846 85 19 5.0 7.0 0.00 0.00 0.00 75
20260902230346 85 79 1.0 3.0 0.00 0.00 0.00 75
20260902225845 86 347 0.0 6.0 0.00 0.00 0.00 75
20260902225341 85 56 2.0 7.0 0.00 0.00 0.00 75
20260902224839 85 101 2.0 4.0 0.00 0.00 0.00 76
20260902224334 86 24 3.0 6.0 0.00 0.00 0.00 76
20260902223832 86 334 1.0 3.0 0.00 0.00 0.00 76
20260902223331 86 357 1.0 3.0 0.00 0.00 0.00 75
20260902222831 86 116 3.0 6.0 0.00 0.00 0.00 75
20260902222330 86 331 1.0 4.0 0.00 0.00 0.00 75
20260902221824 87 2 2.0 4.0 0.00 0.00 0.00 74
20260902221323 87 321 2.0 6.0 0.00 0.00 0.00 73
20260902220819 87 247 3.0 7.0 0.00 0.00 0.00 73